"read_dt","SO2 (ppb)","flags","PMT voltage (V)","lamp voltage (V)","lamp intensity (Hz)","internal temp (C)","react chamber temp (C)","sample flow (l/min)","pres (mmHg)","SO2 bkg (ppb)","SO2 coefficient"
2015-03-30 00:00:00,2763E-3,5C000000,-0724,0835,12174,030.6,045.5,0.468,728.2,01.19,0.508
2015-03-30 00:01:00,2749E-3,5C000000,-0724,0835,12171,030.7,045.5,0.469,728.1,01.19,0.508
2015-03-30 00:02:00,2809E-3,5C000000,-0724,0836,12148,030.7,045.5,0.468,728.2,01.19,0.508
2015-03-30 00:03:00,2821E-3,5C000000,-0724,0836,12083,030.8,045.5,0.468,728.2,01.19,0.508
2015-03-30 00:04:00,2755E-3,5C000000,-0724,0835,12150,030.8,045.5,0.468,728.2,01.19,0.508
2015-03-30 00:05:00,2684E-3,5C000000,-0724,0835,12066,030.9,045.5,0.468,728.1,01.19,0.508
2015-03-30 00:06:00,2773E-3,5C000000,-0724,0835,12158,030.9,045.5,0.468,728.1,01.19,0.508
2015-03-30 00:07:00,2894E-3,5C000000,-0724,0836,12165,031.0,045.5,0.468,728.1,01.19,0.508
2015-03-30 00:08:00,2817E-3,5C000000,-0724,0835,12136,031.0,045.5,0.467,728.2,01.19,0.508
2015-03-30 00:09:00,2787E-3,5C000000,-0724,0835,12131,031.0,045.5,0.468,728.2,01.19,0.508
2015-03-30 00:10:00,2673E-3,5C000000,-0724,0835,12192,031.1,045.5,0.467,728.1,01.19,0.508
2015-03-30 00:11:00,3018E-3,5C000000,-0724,0835,12163,031.0,045.5,0.468,728.1,01.19,0.508
2015-03-30 00:12:00,2871E-3,5C000000,-0724,0834,12110,031.0,045.5,0.467,728.2,01.19,0.508
2015-03-30 00:13:00,2853E-3,5C000000,-0724,0835,12236,030.9,045.5,0.468,728.1,01.19,0.508
2015-03-30 00:14:00,2782E-3,5C000000,-0724,0835,12090,030.8,045.5,0.468,728.2,01.19,0.508
2015-03-30 00:15:00,2775E-3,5C000000,-0724,0834,12217,030.7,045.5,0.468,728.2,01.19,0.508
2015-03-30 00:16:00,2905E-3,5C000000,-0724,0834,12286,030.5,045.5,0.468,728.2,01.19,0.508
2015-03-30 00:17:00,2745E-3,5C000000,-0724,0836,12018,030.4,045.5,0.468,728.2,01.19,0.508
2015-03-30 00:18:00,2744E-3,5C000000,-0724,0835,12187,030.2,045.5,0.468,728.1,01.19,0.508
2015-03-30 00:19:00,2907E-3,5C000000,-0724,0834,12094,030.0,045.5,0.468,728.2,01.19,0.508
2015-03-30 00:20:00,2883E-3,5C000000,-0724,0834,12258,029.8,045.5,0.468,728.1,01.19,0.508
2015-03-30 00:21:00,3009E-3,5C000000,-0724,0834,12254,029.6,045.5,0.469,728.2,01.19,0.508
2015-03-30 00:22:00,2998E-3,5C000000,-0724,0834,12133,029.4,045.5,0.469,728.2,01.19,0.508
2015-03-30 00:23:00,2796E-3,5C000000,-0724,0833,12131,029.1,045.5,0.470,728.2,01.19,0.508
2015-03-30 00:24:00,2836E-3,5C000000,-0724,0834,11957,028.8,045.5,0.470,728.2,01.19,0.508
2015-03-30 00:25:00,2994E-3,5C000000,-0724,0834,12228,028.6,045.5,0.470,728.2,01.19,0.508
2015-03-30 00:26:00,3012E-3,5C000000,-0724,0834,12154,028.4,045.5,0.470,728.2,01.19,0.508
2015-03-30 00:27:00,2856E-3,5C000000,-0724,0833,12239,028.2,045.5,0.471,728.1,01.19,0.508
2015-03-30 00:28:00,2994E-3,5C000000,-0724,0833,12309,028.0,045.5,0.471,728.1,01.19,0.508
2015-03-30 00:29:00,2840E-3,5C000000,-0724,0835,11932,027.9,045.5,0.472,728.1,01.19,0.508
2015-03-30 00:30:00,3115E-3,5C000000,-0724,0833,12231,027.9,045.5,0.472,728.1,01.19,0.508
2015-03-30 00:31:00,3034E-3,5C000000,-0724,0833,12184,027.9,045.5,0.472,728.1,01.19,0.508
2015-03-30 00:32:00,3071E-3,5C000000,-0724,0834,12252,028.0,045.5,0.472,728.1,01.19,0.508
2015-03-30 00:33:00,3054E-3,5C000000,-0724,0833,12310,028.1,045.5,0.472,728.1,01.19,0.508
2015-03-30 00:34:00,2977E-3,5C000000,-0724,0834,12273,028.2,045.5,0.471,728.1,01.19,0.508
2015-03-30 00:35:00,3083E-3,5C000000,-0724,0834,12103,028.3,045.5,0.472,728.1,01.19,0.508
2015-03-30 00:36:00,2965E-3,5C000000,-0724,0834,12210,028.4,045.5,0.471,728.1,01.19,0.508
2015-03-30 00:37:00,3088E-3,5C000000,-0724,0833,12005,028.5,045.5,0.472,728.1,01.19,0.508
2015-03-30 00:38:00,3001E-3,5C000000,-0724,0834,12246,028.7,045.5,0.471,728.1,01.19,0.508
2015-03-30 00:39:00,2973E-3,5C000000,-0724,0834,12174,028.8,045.5,0.471,728.1,01.19,0.508
2015-03-30 00:40:00,3175E-3,5C000000,-0724,0834,12219,028.9,045.5,0.471,728.1,01.19,0.508
2015-03-30 00:41:00,3022E-3,5C000000,-0724,0833,12251,029.0,045.5,0.471,728.1,01.19,0.508
2015-03-30 00:42:00,3034E-3,5C000000,-0724,0835,11985,029.1,045.5,0.471,728.1,01.19,0.508
2015-03-30 00:43:00,3019E-3,5C000000,-0724,0834,12110,029.2,045.5,0.471,728.1,01.19,0.508
2015-03-30 00:44:00,3056E-3,5C000000,-0724,0833,12001,029.3,045.5,0.470,728.1,01.19,0.508
2015-03-30 00:45:00,2942E-3,5C000000,-0724,0834,12167,029.4,045.5,0.470,728.1,01.19,0.508
2015-03-30 00:46:00,3252E-3,5C000000,-0724,0834,12104,029.5,045.5,0.470,728.1,01.19,0.508
2015-03-30 00:47:00,3086E-3,5C000000,-0724,0835,12182,029.6,045.5,0.470,728.1,01.19,0.508
2015-03-30 00:48:00,3115E-3,5C000000,-0724,0834,12097,029.7,045.5,0.469,728.1,01.19,0.508
2015-03-30 00:49:00,3344E-3,5C000000,-0724,0835,11921,029.8,045.5,0.470,728.0,01.19,0.508
2015-03-30 00:50:00,3503E-3,5C000000,-0724,0834,12108,029.9,045.5,0.470,728.0,01.19,0.508
2015-03-30 00:51:00,3264E-3,5C000000,-0724,0834,12203,029.9,045.5,0.469,728.1,01.19,0.508
2015-03-30 00:52:00,3313E-3,5C000000,-0724,0834,11955,030.0,045.5,0.469,728.0,01.19,0.508
2015-03-30 00:53:00,3424E-3,5C000000,-0724,0834,12210,030.1,045.5,0.469,728.1,01.19,0.508
2015-03-30 00:54:00,3392E-3,5C000000,-0724,0834,12228,030.2,045.5,0.469,728.0,01.19,0.508
2015-03-30 00:55:00,3505E-3,5C000000,-0724,0834,12186,030.3,045.5,0.469,728.1,01.19,0.508
2015-03-30 00:56:00,3324E-3,5C000000,-0724,0835,12072,030.3,045.5,0.468,727.9,01.19,0.508
2015-03-30 00:57:00,3335E-3,5C000000,-0724,0834,12103,030.4,045.5,0.469,728.0,01.19,0.508
2015-03-30 00:58:00,3223E-3,5C000000,-0724,0834,12159,030.4,045.5,0.469,728.0,01.19,0.508
2015-03-30 00:59:00,3377E-3,5C000000,-0724,0835,12098,030.5,045.5,0.468,728.1,01.19,0.508
2015-03-30 01:00:00,3373E-3,5C000000,-0724,0834,11936,030.6,045.5,0.469,728.0,01.19,0.508
2015-03-30 01:01:00,3373E-3,5C000000,-0724,0835,12001,030.7,045.5,0.468,728.1,01.19,0.508
2015-03-30 01:02:00,3362E-3,5C000000,-0724,0834,11947,030.7,045.5,0.468,728.1,01.19,0.508
2015-03-30 01:03:00,3366E-3,5C000000,-0724,0834,12112,030.8,045.5,0.468,728.1,01.19,0.508
2015-03-30 01:04:00,3428E-3,5C000000,-0724,0835,12193,030.8,045.5,0.468,728.0,01.19,0.508
2015-03-30 01:05:00,3413E-3,5C000000,-0724,0835,12138,030.9,045.5,0.468,728.1,01.19,0.508
2015-03-30 01:06:00,3350E-3,5C000000,-0724,0834,12116,030.9,045.5,0.468,728.1,01.19,0.508
2015-03-30 01:07:00,3397E-3,5C000000,-0724,0835,12110,031.0,045.5,0.467,728.0,01.19,0.508
2015-03-30 01:08:00,3226E-3,5C000000,-0724,0836,12297,031.0,045.5,0.468,728.0,01.19,0.508
2015-03-30 01:09:00,3206E-3,5C000000,-0724,0835,12102,031.0,045.5,0.468,728.0,01.19,0.508
2015-03-30 01:10:00,3310E-3,5C000000,-0724,0834,12147,031.0,045.5,0.467,728.0,01.19,0.508
2015-03-30 01:11:00,3381E-3,5C000000,-0724,0835,12254,031.0,045.5,0.468,728.0,01.19,0.508
2015-03-30 01:12:00,3158E-3,5C000000,-0724,0834,12199,030.9,045.5,0.468,728.0,01.19,0.508
2015-03-30 01:13:00,3334E-3,5C000000,-0724,0835,12109,030.8,045.5,0.467,728.0,01.19,0.508
2015-03-30 01:14:00,3436E-3,5C000000,-0724,0835,12174,030.7,045.5,0.468,728.0,01.19,0.508
2015-03-30 01:15:00,3327E-3,5C000000,-0724,0836,12165,030.5,045.5,0.468,728.1,01.19,0.508
2015-03-30 01:16:00,3309E-3,5C000000,-0724,0835,12234,030.3,045.5,0.468,728.0,01.19,0.508
2015-03-30 01:17:00,3486E-3,5C000000,-0724,0834,12234,030.2,045.5,0.468,728.1,01.19,0.508
2015-03-30 01:18:00,3392E-3,5C000000,-0724,0833,12200,030.0,045.5,0.468,727.9,01.19,0.508
2015-03-30 01:19:00,3560E-3,5C000000,-0724,0834,12108,029.8,045.5,0.468,728.1,01.19,0.508
2015-03-30 01:20:00,3307E-3,5C000000,-0724,0834,12028,029.6,045.5,0.469,728.1,01.19,0.508
2015-03-30 01:21:00,3517E-3,5C000000,-0724,0834,12392,029.4,045.5,0.469,728.1,01.19,0.508
2015-03-30 01:22:00,3460E-3,5C000000,-0724,0833,12098,029.1,045.5,0.470,728.1,01.19,0.508
2015-03-30 01:23:00,3514E-3,5C000000,-0724,0834,12136,028.9,045.5,0.470,728.1,01.19,0.508
2015-03-30 01:24:00,3465E-3,5C000000,-0724,0834,12022,028.7,045.5,0.470,728.1,01.19,0.508
2015-03-30 01:25:00,3461E-3,5C000000,-0724,0833,12136,028.4,045.5,0.470,728.0,01.19,0.508
2015-03-30 01:26:00,3333E-3,5C000000,-0724,0834,12184,028.3,045.5,0.471,728.1,01.19,0.508
2015-03-30 01:27:00,3384E-3,5C000000,-0724,0835,12074,028.1,045.5,0.471,728.1,01.19,0.508
2015-03-30 01:28:00,3369E-3,5C000000,-0724,0834,12077,028.0,045.5,0.472,728.1,01.19,0.508
2015-03-30 01:29:00,3230E-3,5C000000,-0724,0835,12091,027.9,045.5,0.472,728.1,01.19,0.508
2015-03-30 01:30:00,3414E-3,5C000000,-0724,0835,12146,028.0,045.5,0.472,728.0,01.19,0.508
2015-03-30 01:31:00,3381E-3,5C000000,-0724,0834,12257,028.0,045.5,0.471,728.0,01.19,0.508
2015-03-30 01:32:00,3342E-3,5C000000,-0724,0834,12250,028.1,045.5,0.471,727.9,01.19,0.508
2015-03-30 01:33:00,3471E-3,5C000000,-0724,0834,12080,028.2,045.5,0.472,727.9,01.19,0.508
2015-03-30 01:34:00,3414E-3,5C000000,-0724,0834,12051,028.3,045.5,0.472,728.0,01.19,0.508
2015-03-30 01:35:00,3368E-3,5C000000,-0724,0834,12269,028.4,045.5,0.471,728.0,01.19,0.508
2015-03-30 01:36:00,3371E-3,5C000000,-0724,0835,12215,028.5,045.5,0.472,727.9,01.19,0.508
2015-03-30 01:37:00,3526E-3,5C000000,-0724,0835,12231,028.7,045.5,0.471,727.9,01.19,0.508
2015-03-30 01:38:00,3501E-3,5C000000,-0724,0835,12210,028.8,045.5,0.471,727.8,01.19,0.508
2015-03-30 01:39:00,3435E-3,5C000000,-0724,0835,12113,028.9,045.5,0.471,727.9,01.19,0.508
2015-03-30 01:40:00,3360E-3,5C000000,-0724,0835,12050,029.0,045.5,0.471,727.8,01.19,0.508
2015-03-30 01:41:00,3496E-3,5C000000,-0724,0834,12179,029.1,045.5,0.470,727.8,01.19,0.508
2015-03-30 01:42:00,3686E-3,5C000000,-0724,0834,12184,029.2,045.5,0.470,727.9,01.19,0.508
2015-03-30 01:43:00,3420E-3,5C000000,-0724,0834,12191,029.3,045.5,0.471,727.9,01.19,0.508
2015-03-30 01:44:00,3580E-3,5C000000,-0724,0834,12149,029.4,045.5,0.470,727.9,01.19,0.508
2015-03-30 01:45:00,3584E-3,5C000000,-0724,0835,12212,029.5,045.5,0.470,727.9,01.19,0.508
2015-03-30 01:46:00,3533E-3,5C000000,-0724,0835,12252,029.6,045.5,0.470,727.9,01.19,0.508
2015-03-30 01:47:00,3511E-3,5C000000,-0724,0834,12148,029.7,045.5,0.470,727.9,01.19,0.508
2015-03-30 01:48:00,3406E-3,5C000000,-0724,0835,12144,029.8,045.5,0.470,727.9,01.19,0.508
2015-03-30 01:49:00,3599E-3,5C000000,-0724,0834,12177,029.9,045.5,0.470,728.0,01.19,0.508
2015-03-30 01:50:00,3347E-3,5C000000,-0724,0834,12032,030.0,045.5,0.469,727.9,01.19,0.508
2015-03-30 01:51:00,3490E-3,5C000000,-0724,0834,12097,030.1,045.5,0.469,727.9,01.19,0.508
2015-03-30 01:52:00,3546E-3,5C000000,-0724,0836,12127,030.1,045.5,0.469,727.8,01.19,0.508
2015-03-30 01:53:00,3457E-3,5C000000,-0724,0835,12124,030.2,045.5,0.469,727.9,01.19,0.508
2015-03-30 01:54:00,3473E-3,5C000000,-0724,0835,12205,030.3,045.5,0.469,727.8,01.19,0.508
2015-03-30 01:55:00,3232E-3,5C000000,-0724,0836,12122,030.4,045.5,0.468,727.9,01.19,0.508
2015-03-30 01:56:00,3298E-3,5C000000,-0724,0835,12104,030.5,045.5,0.469,727.8,01.19,0.508
2015-03-30 01:57:00,3305E-3,5C000000,-0724,0836,12108,030.5,045.5,0.469,727.7,01.19,0.508
2015-03-30 01:58:00,3597E-3,5C000000,-0724,0835,12013,030.5,045.5,0.468,727.8,01.19,0.508
2015-03-30 01:59:00,3515E-3,5C000000,-0724,0835,12142,030.6,045.5,0.468,727.7,01.19,0.508
2015-03-30 02:00:00,3471E-3,5C000000,-0724,0835,11999,030.7,045.5,0.468,727.8,01.19,0.508
2015-03-30 02:01:00,3525E-3,5C000000,-0724,0836,12075,030.7,045.5,0.468,727.8,01.19,0.508
2015-03-30 02:02:00,3500E-3,5C000000,-0724,0835,12193,030.8,045.5,0.468,727.8,01.19,0.508
2015-03-30 02:03:00,3504E-3,5C000000,-0724,0835,11965,030.9,045.5,0.468,727.8,01.19,0.508
2015-03-30 02:04:00,3658E-3,5C000000,-0724,0835,12085,030.9,045.5,0.467,727.7,01.19,0.508
2015-03-30 02:05:00,3550E-3,5C000000,-0724,0836,12158,030.9,045.5,0.468,727.7,01.19,0.508
2015-03-30 02:06:00,3367E-3,5C000000,-0724,0835,12102,030.9,045.5,0.467,727.7,01.19,0.508
2015-03-30 02:07:00,3566E-3,5C000000,-0724,0836,12087,030.9,045.5,0.467,727.8,01.19,0.508
2015-03-30 02:08:00,3448E-3,5C000000,-0724,0835,12206,030.8,045.5,0.467,727.7,01.19,0.508
2015-03-30 02:09:00,3499E-3,5C000000,-0724,0835,12153,030.7,045.5,0.468,727.8,01.19,0.508
2015-03-30 02:10:00,3369E-3,5C000000,-0724,0835,12092,030.5,045.5,0.468,727.8,01.19,0.508
2015-03-30 02:11:00,3452E-3,5C000000,-0724,0834,12073,030.4,045.5,0.468,727.8,01.19,0.508
2015-03-30 02:12:00,3748E-3,5C000000,-0724,0835,12228,030.2,045.5,0.468,727.9,01.19,0.508
2015-03-30 02:13:00,3445E-3,5C000000,-0724,0835,12130,030.1,045.5,0.468,727.9,01.19,0.508
2015-03-30 02:14:00,3544E-3,5C000000,-0724,0834,12121,029.9,045.5,0.469,727.8,01.19,0.508
2015-03-30 02:15:00,3316E-3,5C000000,-0724,0835,12039,029.7,045.5,0.469,727.8,01.19,0.508
2015-03-30 02:16:00,3421E-3,5C000000,-0724,0834,12080,029.6,045.5,0.469,727.8,01.19,0.508
2015-03-30 02:17:00,3492E-3,5C000000,-0724,0834,12130,029.3,045.5,0.469,727.8,01.19,0.508
2015-03-30 02:18:00,3659E-3,5C000000,-0724,0835,12218,029.0,045.5,0.469,727.8,01.19,0.508
2015-03-30 02:19:00,3376E-3,5C000000,-0724,0834,11998,028.8,045.5,0.469,727.9,01.19,0.508
2015-03-30 02:20:00,3463E-3,5C000000,-0724,0834,12246,028.6,045.5,0.470,727.8,01.19,0.508
2015-03-30 02:21:00,3555E-3,5C000000,-0724,0834,12229,028.4,045.4,0.471,727.8,01.19,0.508
2015-03-30 02:22:00,3573E-3,5C000000,-0724,0834,12273,028.2,045.4,0.471,727.7,01.19,0.508
2015-03-30 02:23:00,3548E-3,5C000000,-0724,0834,11989,028.0,045.4,0.471,727.8,01.19,0.508
2015-03-30 02:24:00,3401E-3,5C000000,-0724,0834,12208,027.9,045.5,0.471,727.8,01.19,0.508
2015-03-30 02:25:00,3338E-3,5C000000,-0724,0833,12261,027.8,045.5,0.471,727.6,01.19,0.508
2015-03-30 02:26:00,3799E-3,5C000000,-0724,0834,12204,027.9,045.4,0.472,727.7,01.19,0.508
2015-03-30 02:27:00,3542E-3,5C000000,-0724,0834,12067,027.9,045.5,0.472,727.7,01.19,0.508
2015-03-30 02:28:00,3500E-3,5C000000,-0724,0835,12128,028.0,045.5,0.471,727.7,01.19,0.508
2015-03-30 02:29:00,3600E-3,5C000000,-0724,0834,12132,028.1,045.5,0.471,727.6,01.19,0.508
2015-03-30 02:30:00,3558E-3,5C000000,-0724,0834,12221,028.2,045.5,0.472,727.6,01.19,0.508
2015-03-30 02:31:00,3619E-3,5C000000,-0724,0835,12286,028.3,045.5,0.471,727.5,01.19,0.508
2015-03-30 02:32:00,3496E-3,5C000000,-0724,0834,12212,028.5,045.5,0.472,727.5,01.19,0.508
2015-03-30 02:33:00,3757E-3,5C000000,-0724,0835,12226,028.6,045.5,0.471,727.5,01.19,0.508
2015-03-30 02:34:00,3521E-3,5C000000,-0724,0834,12146,028.7,045.5,0.471,727.5,01.19,0.508
2015-03-30 02:35:00,3553E-3,5C000000,-0724,0835,12143,028.9,045.5,0.471,727.4,01.19,0.508
2015-03-30 02:36:00,3519E-3,5C000000,-0724,0835,12250,029.0,045.5,0.471,727.5,01.19,0.508
2015-03-30 02:37:00,3451E-3,5C000000,-0724,0835,12027,029.1,045.5,0.470,727.5,01.19,0.508
2015-03-30 02:38:00,3455E-3,5C000000,-0724,0834,12025,029.2,045.5,0.470,727.5,01.19,0.508
2015-03-30 02:39:00,3429E-3,5C000000,-0724,0834,12112,029.3,045.5,0.470,727.4,01.19,0.508
2015-03-30 02:40:00,3701E-3,5C000000,-0724,0834,12104,029.4,045.5,0.470,727.4,01.19,0.508
2015-03-30 02:41:00,3714E-3,5C000000,-0724,0835,12132,029.5,045.5,0.470,727.4,01.19,0.508
2015-03-30 02:42:00,3591E-3,5C000000,-0724,0835,12145,029.6,045.5,0.469,727.3,01.19,0.508
2015-03-30 02:43:00,3374E-3,5C000000,-0724,0835,12262,029.7,045.5,0.469,727.5,01.19,0.508
2015-03-30 02:44:00,3439E-3,5C000000,-0724,0834,12250,029.8,045.5,0.469,727.5,01.19,0.508
2015-03-30 02:45:00,3524E-3,5C000000,-0724,0834,11870,029.9,045.5,0.470,727.5,01.19,0.508
2015-03-30 02:46:00,3593E-3,5C000000,-0724,0834,12081,030.0,045.5,0.469,727.4,01.19,0.508
2015-03-30 02:47:00,3553E-3,5C000000,-0724,0834,12215,030.0,045.5,0.469,727.5,01.19,0.508
2015-03-30 02:48:00,3495E-3,5C000000,-0724,0833,12051,030.1,045.5,0.469,727.4,01.19,0.508
2015-03-30 02:49:00,3676E-3,5C000000,-0724,0835,12056,030.2,045.5,0.468,727.4,01.19,0.508
2015-03-30 02:50:00,3674E-3,5C000000,-0724,0834,11997,030.3,045.5,0.469,727.4,01.19,0.508
2015-03-30 02:51:00,3463E-3,5C000000,-0724,0835,12271,030.4,045.5,0.469,727.2,01.19,0.508
2015-03-30 02:52:00,3444E-3,5C000000,-0724,0835,12147,030.4,045.5,0.468,727.2,01.19,0.508
2015-03-30 02:53:00,3463E-3,5C000000,-0724,0836,12192,030.5,045.5,0.468,727.4,01.19,0.508
2015-03-30 02:54:00,3477E-3,5C000000,-0724,0836,12073,030.6,045.5,0.468,727.3,01.19,0.508
2015-03-30 02:55:00,3468E-3,5C000000,-0724,0835,12054,030.7,045.5,0.468,727.2,01.19,0.508
2015-03-30 02:56:00,3581E-3,5C000000,-0724,0835,12214,030.7,045.5,0.468,727.3,01.19,0.508
2015-03-30 02:57:00,3532E-3,5C000000,-0724,0835,12102,030.8,045.5,0.467,727.4,01.19,0.508
2015-03-30 02:58:00,3388E-3,5C000000,-0724,0836,12077,030.8,045.5,0.468,727.4,01.19,0.508
2015-03-30 02:59:00,3529E-3,5C000000,-0724,0836,12128,030.9,045.5,0.468,727.3,01.19,0.508
2015-03-30 03:00:00,3464E-3,5C000000,-0724,0836,12127,030.9,045.5,0.467,727.2,01.19,0.508
2015-03-30 03:01:00,3498E-3,5C000000,-0724,0835,12096,030.8,045.5,0.468,727.2,01.19,0.508
2015-03-30 03:02:00,3482E-3,5C000000,-0724,0835,12111,030.8,045.5,0.467,727.2,01.19,0.508
2015-03-30 03:03:00,3610E-3,5C000000,-0724,0835,12119,030.7,045.5,0.468,727.4,01.19,0.508
2015-03-30 03:04:00,3580E-3,5C000000,-0724,0836,12125,030.6,045.5,0.467,727.4,01.19,0.508
2015-03-30 03:05:00,3498E-3,5C000000,-0724,0834,12145,030.5,045.5,0.468,727.3,01.19,0.508
2015-03-30 03:06:00,3531E-3,5C000000,-0724,0835,12122,030.3,045.5,0.468,727.1,01.19,0.508
2015-03-30 03:07:00,3479E-3,5C000000,-0724,0834,12150,030.2,045.5,0.468,727.3,01.19,0.508
2015-03-30 03:08:00,3439E-3,5C000000,-0724,0835,12094,030.0,045.5,0.468,727.3,01.19,0.508
2015-03-30 03:09:00,3590E-3,5C000000,-0724,0834,12312,029.9,045.5,0.468,727.3,01.19,0.508
2015-03-30 03:10:00,3427E-3,5C000000,-0724,0835,12131,029.7,045.5,0.468,727.4,01.19,0.508
2015-03-30 03:11:00,3402E-3,5C000000,-0724,0834,12123,029.5,045.5,0.469,727.5,01.19,0.508
2015-03-30 03:12:00,3411E-3,5C000000,-0724,0835,11968,029.2,045.5,0.469,727.4,01.19,0.508
2015-03-30 03:13:00,3493E-3,5C000000,-0724,0834,12103,029.0,045.5,0.469,727.6,01.19,0.508
2015-03-30 03:14:00,3421E-3,5C000000,-0724,0834,12175,028.7,045.5,0.470,727.5,01.19,0.508
2015-03-30 03:15:00,3494E-3,5C000000,-0724,0834,12134,028.5,045.5,0.470,727.4,01.19,0.508
2015-03-30 03:16:00,3395E-3,5C000000,-0724,0834,12219,028.3,045.5,0.471,727.4,01.19,0.508
2015-03-30 03:17:00,3564E-3,5C000000,-0724,0833,12151,028.2,045.4,0.471,727.4,01.19,0.508
2015-03-30 03:18:00,3621E-3,5C000000,-0724,0834,12160,028.0,045.4,0.471,727.3,01.19,0.508
2015-03-30 03:19:00,3480E-3,5C000000,-0724,0834,12271,027.9,045.4,0.471,727.4,01.19,0.508
2015-03-30 03:20:00,3428E-3,5C000000,-0724,0834,12255,027.8,045.5,0.472,727.4,01.19,0.508
2015-03-30 03:21:00,3363E-3,5C000000,-0724,0834,12161,027.9,045.5,0.472,727.4,01.19,0.508
2015-03-30 03:22:00,3399E-3,5C000000,-0724,0834,12039,027.9,045.5,0.471,727.4,01.19,0.508
2015-03-30 03:23:00,3562E-3,5C000000,-0724,0834,12022,028.0,045.5,0.471,727.3,01.19,0.508
2015-03-30 03:24:00,3501E-3,5C000000,-0724,0834,12252,028.1,045.5,0.472,727.2,01.19,0.508
2015-03-30 03:25:00,3431E-3,5C000000,-0724,0834,12116,028.3,045.5,0.471,727.2,01.19,0.508
2015-03-30 03:26:00,3519E-3,5C000000,-0724,0835,12203,028.4,045.5,0.472,727.3,01.19,0.508
2015-03-30 03:27:00,3556E-3,5C000000,-0724,0833,12238,028.5,045.5,0.471,727.3,01.19,0.508
2015-03-30 03:28:00,3464E-3,5C000000,-0724,0834,12165,028.6,045.5,0.471,727.3,01.19,0.508
2015-03-30 03:29:00,3567E-3,5C000000,-0724,0834,12060,028.8,045.5,0.471,727.3,01.19,0.508
2015-03-30 03:30:00,3547E-3,5C000000,-0724,0834,12262,028.9,045.5,0.471,727.3,01.19,0.508
2015-03-30 03:31:00,3523E-3,5C000000,-0724,0834,12203,029.0,045.5,0.470,727.4,01.19,0.508
2015-03-30 03:32:00,3545E-3,5C000000,-0724,0835,12053,029.1,045.5,0.470,727.2,01.19,0.508
2015-03-30 03:33:00,3451E-3,5C000000,-0724,0834,12122,029.2,045.5,0.470,727.2,01.19,0.508
2015-03-30 03:34:00,3578E-3,5C000000,-0724,0834,12189,029.3,045.5,0.470,727.3,01.19,0.508
2015-03-30 03:35:00,3473E-3,5C000000,-0724,0834,12176,029.4,045.5,0.470,727.3,01.19,0.508
2015-03-30 03:36:00,3558E-3,5C000000,-0724,0835,12304,029.6,045.5,0.470,727.2,01.19,0.508
2015-03-30 03:37:00,3571E-3,5C000000,-0724,0834,12350,029.7,045.5,0.469,727.2,01.19,0.508
2015-03-30 03:38:00,3622E-3,5C000000,-0724,0834,12033,029.8,045.5,0.469,727.3,01.19,0.508
2015-03-30 03:39:00,3523E-3,5C000000,-0724,0835,12135,029.9,045.5,0.469,727.2,01.19,0.508
2015-03-30 03:40:00,3470E-3,5C000000,-0724,0835,11991,029.9,045.5,0.469,727.2,01.19,0.508
2015-03-30 03:41:00,3382E-3,5C000000,-0724,0836,12236,030.0,045.5,0.469,727.3,01.19,0.508
2015-03-30 03:42:00,3440E-3,5C000000,-0724,0835,12183,030.1,045.5,0.469,727.2,01.19,0.508
2015-03-30 03:43:00,3455E-3,5C000000,-0724,0835,12054,030.2,045.5,0.469,727.3,01.19,0.508
2015-03-30 03:44:00,3533E-3,5C000000,-0724,0834,12042,030.3,045.5,0.468,727.2,01.19,0.508
2015-03-30 03:45:00,3432E-3,5C000000,-0724,0835,12166,030.4,045.5,0.468,727.1,01.19,0.508
2015-03-30 03:46:00,3521E-3,5C000000,-0724,0835,12126,030.4,045.5,0.468,727.2,01.19,0.508
2015-03-30 03:47:00,3442E-3,5C000000,-0724,0835,12196,030.5,045.5,0.468,727.1,01.19,0.508
2015-03-30 03:48:00,3400E-3,5C000000,-0724,0835,12162,030.6,045.5,0.468,727.1,01.19,0.508
2015-03-30 03:49:00,3553E-3,5C000000,-0724,0835,12273,030.6,045.5,0.468,727.2,01.19,0.508
2015-03-30 03:50:00,3479E-3,5C000000,-0724,0836,12140,030.7,045.5,0.468,727.2,01.19,0.508
2015-03-30 03:51:00,3425E-3,5C000000,-0724,0835,12381,030.7,045.5,0.468,727.2,01.19,0.508
2015-03-30 03:52:00,3533E-3,5C000000,-0724,0836,12103,030.7,045.5,0.467,727.1,01.19,0.508
2015-03-30 03:53:00,3370E-3,5C000000,-0724,0836,12119,030.7,045.5,0.468,727.2,01.19,0.508
2015-03-30 03:54:00,3526E-3,5C000000,-0724,0835,12021,030.6,045.5,0.468,727.2,01.19,0.508
2015-03-30 03:55:00,3507E-3,5C000000,-0724,0836,12051,030.6,045.5,0.467,727.2,01.19,0.508
2015-03-30 03:56:00,3581E-3,5C000000,-0724,0835,12208,030.4,045.5,0.468,727.3,01.19,0.508
2015-03-30 03:57:00,3583E-3,5C000000,-0724,0835,12346,030.3,045.5,0.468,727.3,01.19,0.508
2015-03-30 03:58:00,3407E-3,5C000000,-0724,0835,12030,030.2,045.5,0.468,727.2,01.19,0.508
2015-03-30 03:59:00,3327E-3,5C000000,-0724,0836,12056,030.0,045.5,0.468,727.3,01.19,0.508
2015-03-30 04:00:00,3435E-3,5C000000,-0724,0835,12130,029.9,045.5,0.468,727.3,01.19,0.508
2015-03-30 04:01:00,3480E-3,5C000000,-0724,0835,12265,029.8,045.5,0.469,727.3,01.19,0.508
2015-03-30 04:02:00,3489E-3,5C000000,-0724,0835,12312,029.6,045.5,0.469,727.3,01.19,0.508
2015-03-30 04:03:00,3556E-3,5C000000,-0724,0834,12169,029.3,045.5,0.469,727.3,01.19,0.508
2015-03-30 04:04:00,3399E-3,5C000000,-0724,0834,12259,029.1,045.5,0.470,727.4,01.19,0.508
2015-03-30 04:05:00,3441E-3,5C000000,-0724,0835,12186,028.9,045.5,0.470,727.2,01.19,0.508
2015-03-30 04:06:00,3546E-3,5C000000,-0724,0834,12253,028.6,045.5,0.470,727.3,01.19,0.508
2015-03-30 04:07:00,3369E-3,5C000000,-0724,0833,12176,028.4,045.5,0.470,727.3,01.19,0.508
2015-03-30 04:08:00,3591E-3,5C000000,-0724,0834,12168,028.2,045.5,0.470,727.3,01.19,0.508
2015-03-30 04:09:00,3557E-3,5C000000,-0724,0834,12107,028.0,045.5,0.470,727.3,01.19,0.508
2015-03-30 04:10:00,3402E-3,5C000000,-0724,0834,12077,027.9,045.5,0.471,727.2,01.19,0.508
2015-03-30 04:11:00,3629E-3,5C000000,-0724,0834,12251,027.8,045.5,0.471,727.3,01.19,0.508
2015-03-30 04:12:00,3434E-3,5C000000,-0724,0834,12222,027.8,045.5,0.471,727.2,01.19,0.508
2015-03-30 04:13:00,3333E-3,5C000000,-0724,0835,12037,027.9,045.4,0.472,727.1,01.19,0.508
2015-03-30 04:14:00,3516E-3,5C000000,-0724,0835,12211,027.9,045.5,0.471,727.1,01.19,0.508
2015-03-30 04:15:00,3454E-3,5C000000,-0724,0834,12114,028.0,045.5,0.471,727.1,01.19,0.508
2015-03-30 04:16:00,3442E-3,5C000000,-0724,0834,12249,028.1,045.5,0.472,727.0,01.19,0.508
2015-03-30 04:17:00,3446E-3,5C000000,-0724,0834,12162,028.2,045.5,0.471,727.1,01.19,0.508
2015-03-30 04:18:00,3493E-3,5C000000,-0724,0835,12023,028.3,045.5,0.471,727.1,01.19,0.508
2015-03-30 04:19:00,3385E-3,5C000000,-0724,0835,12095,028.5,045.5,0.471,727.1,01.19,0.508
2015-03-30 04:20:00,3442E-3,5C000000,-0724,0835,12064,028.6,045.5,0.471,727.0,01.19,0.508